Location: Belfast
(54.5830°N, 5.9330°W)
Time: 14:06:07
(UTC+01:00)

ISS - Pass Details

Date: 25 May 2017
Orbit: 402 x 408 km, 51.6° (Epoch: 26 May)

Event Time Altitude Azimuth Distance (km) Brightness Sun altitude
Rises 00:01:44 0° 240° (WSW) 2,329 -0.1 -12.6°
Reaches altitude 10° 00:03:54 10° 232° (SW) 1,469 -1.2 -12.7°
Maximum altitude 00:06:58 37° 164° (SSE) 657 -3.3 -12.8°
Drops below altitude 10° 00:10:02 10° 95° (E) 1,470 -1.2 -13.0°
Sets 00:12:12 0° 87° (E) 2,330 -0.1 -13.1°
